Location: Grieser Field
(39.7333°N, 81.7975°W)
Time: 22:39:18
(UTC-04:00)

Meteor 2-1 Rocket - Visible Passes

Search period start: 24 September 2017 00:00
Search period end: 04 October 2017 00:00
Orbit: 828 x 908 km, 81.3° (Epoch: 24 September)

Date Brightness Start Highest point End Pass type
(mag) Time Alt. Az. Time Alt. Az. Time Alt. Az.
24 Sep 7.1 23:56:13 10° NNW 23:56:13 10° NNW 23:56:14 10° N visible
25 Sep 7.1 23:49:27 10° NNW 23:49:27 10° NNW 23:49:34 10° NNW visible
26 Sep 7.1 23:42:40 11° NNW 23:42:40 11° NNW 23:42:52 10° NNW visible
27 Sep 7.0 23:35:51 11° NNW 23:35:51 11° NNW 23:36:12 10° NNW visible
28 Sep 7.0 23:29:00 12° NNW 23:29:00 12° NNW 23:29:30 10° NNW visible
29 Sep 6.6 21:39:45 10° NNE 21:39:45 10° NNE 21:39:47 10° NNE visible
29 Sep 6.9 23:22:07 13° NNW 23:22:07 13° NNW 23:22:49 10° NNW visible
30 Sep 6.5 21:32:49 11° NNE 21:32:49 11° NNE 21:33:09 10° NNE visible
30 Sep 6.8 23:15:11 14° NNW 23:15:11 14° NNW 23:16:08 10° NNW visible
01 Oct 6.3 21:25:50 13° NNE 21:25:50 13° NNE 21:26:30 10° NNE visible
01 Oct 6.8 23:08:11 15° NNW 23:08:11 15° NNW 23:09:27 10° NNW visible
02 Oct 6.2 21:18:45 16° NNE 21:18:45 16° NNE 21:19:51 10° NNE visible
02 Oct 6.7 23:01:06 17° NNW 23:01:06 17° NNW 23:02:45 10° NNW visible
03 Oct 5.9 21:11:33 19° NNE 21:11:33 19° NNE 21:13:13 10° NNE visible
03 Oct 6.5 22:53:54 19° NNW 22:53:54 19° NNW 22:56:04 10° NNW visible
